Regional Weather Roundup
Issued by NWS

Home | Current Version | Previous Version | Graphics & Text | Print | Product List | Glossary On
Versions: 1 2 3 4 5 6 7 8 9 10 11 12 13 14 15 16 17 18 19 20 21 22 23 24 25 26 27 28 29 30 31 32 33 34 35 36 37 38 39 40 41 42 43 44 45 46 47 48 49 50
000
ASUS45 KSLC 022110
RWRUT

UTAH REGIONAL WEATHER ROUNDUP
NATIONAL WEATHER SERVICE SALT LAKE CITY UT
300 PM MDT THU JUL 02 2015

UTZ001>011-023>025-022200-

NORTHERN UTAH

CITY           SKY/WX    TMP DP  RH WIND       PRES   REMARKS
BRIGHAM CITY     N/A     94  35  12 SW8       30.04F
HILL AFB         N/A     92  43  18 VRB3      30.09F
LOGAN          SUNNY     92  46  20 MISG      30.06F
OGDEN            N/A     95  41  15 CALM      30.05F HX  91
PROVO AIRPORT  MOSUNNY   95  48  20 NW9       30.08S HX  91
SALT LAKE CITY PTSUNNY   96  41  15 W12G23    30.03F HX  92
VERNAL         MOSUNNY   93  40  15 SE8       30.08F
WENDOVER         N/A     97  45  16 S8        30.05S HX  93
HEBER CITY       N/A     95  32  11 NW9       30.13F HX  90
WEST JORDAN    SUNNY     95  37  13 NW16      30.08F HX  90

$$

UTZ012>022-026-027-022200-

SOUTHERN/CENTRAL UTAH

CITY           SKY/WX    TMP DP  RH WIND       PRES   REMARKS
BLANDING         N/A    N/A N/A N/A SW3       30.20F
BRYCE CANYON   CLOUDY    75  49  39 W13       30.32F
CEDAR CITY       N/A     88  45  22 SE3       30.15F
DELTA            N/A     96  38  13 CALM      30.06F HX  92
HANKSVILLE       N/A     99  37  12 E6G17     30.02F HX  93
MILFORD          N/A     94  42  16 SE6       30.08F HX  90
MOAB/CYNLANDS  SUNNY     93  48  21 S6        30.00F
PRICE          PTSUNNY   94  38  14 W6G20     30.13F
ST GEORGE        N/A    100  55  22 NW9       29.94F HX  99
KANAB            N/A     91  54  27 S8        30.13F

$$

REGIONAL REPORTS     COLORADO/ARIZONA

CITY           SKY/WX    TMP DP  RH WIND       PRES   REMARKS
CRAIG, CO      MOSUNNY   89  38  16 N10       30.17F
GRAND JUNCTION PTSUNNY   93  48  21 SW13      30.03F
RIFLE          MOSUNNY   92  44  19 N7        30.08F
MONTROSE       CLOUDY    87  48  25 N7        30.13F
CORTEZ         SUNNY     91  51  25 W13G21    30.13F
PAGE, AZ         N/A     98  44  15 MISG      30.01F HX  94
GRAND CANYON     N/A     84  51  31 W9        30.26F
KINGMAN          N/A     97  52  21 MISG      30.03F HX  94
FLAGSTAFF        N/A     82  56  40 S13       30.27F

$$

REGIONAL REPORTS    NEVADA/IDAHO/WYOMING

CITY           SKY/WX    TMP DP  RH WIND       PRES   REMARKS
LAS VEGAS, NV    N/A    100  58  24 S8        29.87F HX  99
ELY              N/A     88  42  20 NE9       30.24F
ELKO             N/A     96  39  13 VRB7      30.10F HX  91
POCATELLO, ID  MOSUNNY   93  43  17 CALM      30.08F
BURLEY           N/A     92  44  19 VRB3      30.05F
EVANSTON, WY   MOSUNNY   86  38  18 S10G18    30.26F
ROCK SPRINGS   SUNNY     84  46  26 VRB5      30.22F
KEMMERER       MOSUNNY  N/A N/A N/A NE7G16    30.27F

$$



USA.gov is the U.S. government's official web portal to all federal, state and local government web resources and services.